Henderson, TX

4:08 AM CDT on July 22, 2017 (GMT -0500)
Henderson

Weather History for KRFI - September, 2012

Change the Weather History Date:

Sunday, September 9, 2012

  Actual Average (KGGG) Record (KGGG)
Temperature  
Mean Temperature 69 °F -  
Max Temperature 87 °F 87 °F 103 °F (1939)
Min Temperature 51 °F 66 °F 51 °F (2011)
Cooling Degree Days 4    
Growing Degree Days 19 (Base 50)    
Moisture  
Dew Point 47 °F    
Average Humidity 52    
Maximum Humidity 94    
Minimum Humidity 18    
Precipitation  
Precipitation 0.00 in - - ()
Sea Level Pressure  
Sea Level Pressure 30.08 in    
Wind  
Wind Speed 2 mph (NNE)    
Max Wind Speed 10 mph    
Max Gust Speed 16 mph    
Visibility 10 miles    
Events      
Averages and records for this station are not official NWS values.
T = Trace of Precipitation, MM = Missing Value Source: NWS Daily Summary

Daily Weather History Graph

Daily Weather History Graph

Search for Another Location

Airport or City:

Trip Planner

Search our weather history database for the weather conditions in past years. The results will help you decide how hot, cold, wet, or windy it might be!

Date:

Astronomy

Sep. 09, 2012 Rise Set
Actual Time 6:59 AM CDT 7:32 PM CDT
Civil Twilight 6:35 AM CDT 7:57 PM CDT
Nautical Twilight 6:06 AM CDT 8:26 PM CDT
Astronomical Twilight 5:36 AM CDT 8:55 PM CDT
Moon 12:45 AM CDT (9/9) 3:03 PM CDT (9/9)
Length of Visible Light 13h 22m
Length of Day
12h 32m
Last Quarter, 39% of the Moon is Illuminated
Sep 9
Last Quarter
Sep 15
New
Sep 22
First Quarter
Sep 29
Full
Oct 8
Last Quarter

Hourly Weather History & Observations

Time (CDT) Temp. Dew Point Humidity Pressure Visibility Wind Dir Wind Speed Gust Speed Precip Events Conditions
12:15 AM 60.8 °F 50.0 °F 68% 30.05 in 10.0 mi Calm Calm - N/A   Clear
12:35 AM 60.8 °F 51.8 °F 72% 30.05 in 10.0 mi North 3.5 mph - N/A   Clear
12:55 AM 62.6 °F 48.2 °F 59% 30.05 in 10.0 mi North 4.6 mph - N/A   Clear
1:15 AM 62.6 °F 48.2 °F 59% 30.04 in 10.0 mi North 3.5 mph - N/A   Clear
1:35 AM 62.6 °F 48.2 °F 59% 30.05 in 10.0 mi North 3.5 mph - N/A   Clear
1:55 AM 62.6 °F 48.2 °F 59% 30.05 in 10.0 mi North 3.5 mph - N/A   Clear
2:15 AM 62.6 °F 48.2 °F 59% 30.05 in 10.0 mi North 3.5 mph - N/A   Clear
2:35 AM 62.6 °F 48.2 °F 59% 30.06 in 10.0 mi North 3.5 mph - N/A   Clear
2:55 AM 62.6 °F 48.2 °F 59% 30.06 in 10.0 mi North 3.5 mph - N/A   Clear
3:15 AM 62.6 °F 48.2 °F 59% 30.06 in 10.0 mi North 3.5 mph - N/A   Clear
3:35 AM 60.8 °F 48.2 °F 63% 30.07 in 10.0 mi Calm Calm - N/A   Clear
3:55 AM 60.8 °F 48.2 °F 63% 30.07 in 10.0 mi Calm Calm - N/A   Clear
4:15 AM 59.0 °F 50.0 °F 72% 30.07 in 10.0 mi Calm Calm - N/A   Clear
4:35 AM 57.2 °F 50.0 °F 77% 30.07 in 10.0 mi Calm Calm - N/A   Clear
4:55 AM 57.2 °F 48.2 °F 72% 30.07 in 10.0 mi Calm Calm - N/A   Clear
5:15 AM 55.4 °F 48.2 °F 77% 30.08 in 10.0 mi Calm Calm - N/A   Clear
5:35 AM 53.6 °F 48.2 °F 82% 30.08 in 10.0 mi Calm Calm - N/A   Clear
5:55 AM 53.6 °F 48.2 °F 82% 30.08 in 10.0 mi Calm Calm - N/A   Clear
6:15 AM 53.6 °F 48.2 °F 82% 30.08 in 10.0 mi Calm Calm - N/A   Clear
6:35 AM 51.8 °F 50.0 °F 94% 30.08 in 10.0 mi Calm Calm - N/A   Clear
6:55 AM 51.8 °F 50.0 °F 94% 30.09 in 10.0 mi Calm Calm - N/A   Clear
7:15 AM 51.8 °F 50.0 °F 94% 30.10 in 10.0 mi Calm Calm - N/A   Clear
7:35 AM 51.8 °F 50.0 °F 94% 30.11 in 10.0 mi Calm Calm - N/A   Clear
7:55 AM 55.4 °F 50.0 °F 82% 30.11 in 10.0 mi Calm Calm - N/A   Clear
8:15 AM 59.0 °F 50.0 °F 72% 30.12 in 10.0 mi Calm Calm - N/A   Clear
8:35 AM 62.6 °F 50.0 °F 63% 30.13 in 10.0 mi Calm Calm - N/A   Clear
8:55 AM 66.2 °F 50.0 °F 56% 30.13 in 10.0 mi NNE 4.6 mph - N/A   Clear
9:15 AM 69.8 °F 50.0 °F 49% 30.13 in 10.0 mi NE 4.6 mph - N/A   Clear
9:35 AM 71.6 °F 50.0 °F 46% 30.13 in 10.0 mi ENE 5.8 mph - N/A   Clear
9:55 AM 71.6 °F 50.0 °F 46% 30.13 in 10.0 mi ENE 3.5 mph - N/A   Clear
10:15 AM 73.4 °F 50.0 °F 44% 30.14 in 10.0 mi ENE 3.5 mph - N/A   Clear
10:35 AM 73.4 °F 50.0 °F 44% 30.14 in 10.0 mi Calm Calm - N/A   Clear
10:55 AM 77.0 °F 50.0 °F 39% 30.14 in 10.0 mi ESE 3.5 mph - N/A   Clear
11:15 AM 77.0 °F 48.2 °F 36% 30.14 in 10.0 mi Calm Calm - N/A   Clear
11:35 AM 78.8 °F 46.4 °F 32% 30.13 in 10.0 mi East 4.6 mph - N/A   Clear
11:55 AM 80.6 °F 46.4 °F 30% 30.13 in 10.0 mi NW 3.5 mph - N/A   Clear
12:15 PM 80.6 °F 46.4 °F 30% 30.13 in 10.0 mi Calm Calm - N/A   Clear
12:35 PM 82.4 °F 44.6 °F 26% 30.12 in 10.0 mi North 4.6 mph - N/A   Clear
12:55 PM 82.4 °F 44.6 °F 26% 30.11 in 10.0 mi East 4.6 mph - N/A   Clear
1:35 PM 82.4 °F 42.8 °F 25% 30.10 in 10.0 mi Calm Calm - N/A   Clear
1:55 PM 82.4 °F 42.8 °F 25% 30.08 in 10.0 mi NE 8.1 mph - N/A   Clear
2:15 PM 84.2 °F 42.8 °F 23% 30.07 in 10.0 mi North 10.4 mph - N/A   Clear
2:35 PM 86.0 °F 41.0 °F 20% 30.07 in 10.0 mi Calm Calm - N/A   Clear
2:55 PM 86.0 °F 39.2 °F 19% 30.06 in 10.0 mi NNW 5.8 mph - N/A   Clear
3:15 PM 86.0 °F 37.4 °F 18% 30.06 in 10.0 mi ENE 4.6 mph - N/A   Clear
3:35 PM 86.0 °F 39.2 °F 19% 30.05 in 10.0 mi North 8.1 mph 16.1 mph N/A   Clear
4:15 PM 87.8 °F 39.2 °F 18% 30.05 in 10.0 mi Calm Calm - N/A   Clear
4:35 PM 86.0 °F 39.2 °F 19% 30.04 in 10.0 mi Calm Calm - N/A   Clear
4:55 PM 86.0 °F 39.2 °F 19% 30.04 in 10.0 mi NE 5.8 mph - N/A   Clear
5:15 PM 86.0 °F 37.4 °F 18% 30.04 in 10.0 mi Calm Calm - N/A   Clear
5:35 PM 86.0 °F 37.4 °F 18% 30.04 in 10.0 mi North 5.8 mph - N/A   Clear
5:55 PM 86.0 °F 39.2 °F 19% 30.03 in 10.0 mi NE 8.1 mph - N/A   Clear
6:15 PM 86.0 °F 37.4 °F 18% 30.03 in 10.0 mi NNE 3.5 mph - N/A   Clear
6:35 PM 80.6 °F 41.0 °F 24% 30.03 in 10.0 mi North 3.5 mph - N/A   Clear
6:55 PM 78.8 °F 46.4 °F 32% 30.03 in 10.0 mi Calm Calm - N/A   Clear
7:15 PM 77.0 °F 50.0 °F 39% 30.03 in 10.0 mi Calm Calm - N/A   Clear
7:35 PM 73.4 °F 51.8 °F 47% 30.03 in 10.0 mi Calm Calm - N/A   Clear
7:55 PM 71.6 °F 50.0 °F 46% 30.03 in 10.0 mi Calm Calm - N/A   Clear
8:15 PM 68.0 °F 51.8 °F 56% 30.04 in 10.0 mi Calm Calm - N/A   Clear
8:35 PM 69.8 °F 51.8 °F 53% 30.05 in 10.0 mi Calm Calm - N/A   Clear
8:55 PM 68.0 °F 51.8 °F 56% 30.06 in 10.0 mi Calm Calm - N/A   Clear
9:15 PM 68.0 °F 53.6 °F 60% 30.06 in 10.0 mi Calm Calm - N/A   Clear
9:35 PM 64.4 °F 51.8 °F 64% 30.07 in 10.0 mi Calm Calm - N/A   Clear
9:55 PM 62.6 °F 51.8 °F 68% 30.07 in 10.0 mi Calm Calm - N/A   Clear
10:15 PM 62.6 °F 51.8 °F 68% 30.08 in 10.0 mi Calm Calm - N/A   Clear
10:35 PM 60.8 °F 51.8 °F 72% 30.08 in 10.0 mi Calm Calm - N/A   Clear
10:55 PM 60.8 °F 51.8 °F 72% 30.08 in 10.0 mi Calm Calm - N/A   Clear
11:15 PM 60.8 °F 51.8 °F 72% 30.08 in 10.0 mi Calm Calm - N/A   Clear
11:35 PM 60.8 °F 51.8 °F 72% 30.08 in 10.0 mi Calm Calm - N/A   Clear
11:55 PM 59.0 °F 51.8 °F 77% 30.08 in 10.0 mi Calm Calm - N/A   Clear